sat.trackr.live / text

‹ back to catalog

STARLINK-37147

NORAD 68295 · 2026-057B

PAYLOAD ACTIVE UNKNOWN

§ Identity

Operator
Country
US
Launch date
2026-03-20
Launch site
AFWTR
Launch vehicle
Mass (kg)
RCS (m²)

Purposes: comms

External: N2YO · Heavens-Above · Gunter

§ Orbital elements

Epoch: 2026-05-24T20:50:02.576832Z

Period
91.41 min
Inclination
97.2845°
Eccentricity
0.0001290
Mean motion
15.75243513 rev/d
Perigee alt
343.1 km
Apogee alt
344.8 km
Semi-major
6,722.1 km
B*
8.4410e-4
RAAN
271.0443°
Arg perigee
84.0304°
Mean anomaly
276.1108°
Rev number
1,027

§ Raw data

STARLINK-371471 68295U 26057B   26144.86808538  .00127972  00000+0  84410-3 0  99902 68295  97.2845 271.0443 0001290  84.0304 276.1108 15.75243513 10270

JSON: /api/v1/satellites/68295 · /tle

For live sub-satellite position, see the globe view (requires WebGL).

§ Visibility from observer

Set your observer location to see the next 7 days of passes ≥ 10°. The values pass through the URL so the page stays shareable.

No JS? Fill the form by hand. The geolocation button needs JavaScript.